Date String (YYYY-MM-DD hh:mm:ss) UTC,Instrument flags,absolute air pressure of the measurement (hPa),sample flow rate (lpm),inlet stack bypass flow (lpm),air temperature of the measurement (°C),ambient temperature measured by the external sensor (°C),aerosol sample conditioner tube jacket temperature (°C),OPC LED temperature (°C),internal box temperature (°C),relative humidity of the measurement (%),span deviation,mass concentration of particles derived from Lorenz-Mie calculation of OPC scattering (μg/m³),mass concentration of particles derived from Lorenz-Mie calculation of OPC scattering (μg/m³),mass concentration of particles derived from Lorenz-Mie calculation of OPC scattering (μg/m³)
DateTimeUTC,F1_M11,P_M11,Q1_M11,Q2_M11,T1_M11,T2_M11,T3_M11,T4_M11,T5_M11,U1_M11,ZSPAN_M11,X2_M11,X0_M11,X1_M11
2023-10-13 08:00:00,SystemResetWarning,0828.2,5.00,000.00,026.1,024.6,000.0,034.7,027.7,16.0,0000.0,0000.27,0004.50,0000.10
2023-10-13 08:01:00,SystemResetWarning,0828.2,5.00,000.00,026.1,024.6,000.0,034.7,027.7,16.0,0000.0,0000.27,0004.49,0000.10
2023-10-13 08:02:00,SystemResetWarning,0828.2,4.99,000.00,026.1,024.6,000.0,034.7,027.7,16.0,0000.0,0000.27,0004.49,0000.10
2023-10-13 08:03:00,SystemResetWarning,0828.2,5.00,000.00,026.1,024.6,000.0,034.7,027.7,16.0,0000.0,0000.25,0004.24,0000.10
2023-10-13 08:04:00,SystemResetWarning,0828.2,5.00,000.00,026.1,024.6,000.0,034.7,027.7,15.9,0000.0,0000.25,0003.43,0000.10
2023-10-13 08:05:00,SystemResetWarning,0828.3,5.00,000.00,026.1,024.6,000.0,034.7,027.7,15.9,0000.0,0000.25,0003.21,0000.10
2023-10-13 08:06:00,SystemResetWarning,0828.3,4.99,000.00,026.1,024.5,000.0,034.6,027.6,15.9,0000.0,0000.24,0002.01,0000.10
2023-10-13 08:07:00,SystemResetWarning,0828.3,5.00,000.00,026.0,024.5,000.0,034.6,027.6,15.9,0000.0,0000.22,0001.43,0000.10
2023-10-13 08:08:00,SystemResetWarning,0828.3,5.00,000.00,026.0,024.5,000.0,034.6,027.6,15.8,0000.0,0000.20,0001.36,0000.10
2023-10-13 08:09:00,SystemResetWarning,0828.3,5.00,000.00,026.0,024.5,000.0,034.6,027.6,15.8,0000.0,0000.18,0000.84,0000.09
2023-10-13 08:10:00,SystemResetWarning,0828.3,5.00,000.00,026.0,024.5,000.0,034.6,027.6,15.8,0000.0,0000.18,0000.43,0000.09
2023-10-13 08:11:00,SystemResetWarning,0828.3,5.00,000.00,026.0,024.5,000.0,034.6,027.6,15.8,0000.0,0000.20,0000.50,0000.09
2023-10-13 08:12:00,SystemResetWarning,0828.3,5.00,000.00,026.0,024.5,000.0,034.6,027.6,15.7,0000.0,0000.23,0000.61,0000.10
2023-10-13 08:13:00,SystemResetWarning,0828.4,5.00,000.00,026.0,024.5,000.0,034.6,027.6,15.7,0000.0,0000.24,0000.58,0000.10
2023-10-13 08:14:00,SystemResetWarning,0828.4,5.01,000.00,026.0,024.5,000.0,034.5,027.6,15.7,0000.0,0000.27,0000.59,0000.10
2023-10-13 08:15:00,SystemResetWarning,0828.4,5.01,000.00,026.0,024.5,000.0,034.5,027.6,15.7,0000.0,0000.28,0000.60,0000.10
2023-10-13 08:16:00,SystemResetWarning,0828.4,5.00,000.00,026.0,024.5,000.0,034.5,027.6,15.7,0000.0,0000.27,0000.58,0000.11
2023-10-13 08:17:00,SystemResetWarning,0828.4,5.00,000.00,026.0,024.5,000.0,034.5,027.6,15.7,0000.0,0000.27,0000.57,0000.11
2023-10-13 08:18:00,SystemResetWarning,0828.4,5.00,000.00,026.0,024.5,000.0,034.5,027.6,15.7,0000.0,0000.29,0000.62,0000.11
2023-10-13 08:19:00,SystemResetWarning,0828.4,5.00,000.00,026.0,024.5,000.0,034.5,027.7,15.6,0000.0,0000.29,0000.63,0000.11
2023-10-13 08:20:00,SystemResetWarning,0828.5,5.00,000.00,026.0,024.6,000.0,034.5,027.7,15.5,0000.0,0000.29,0000.63,0000.10
2023-10-13 08:21:00,SystemResetWarning,0828.5,5.00,000.00,026.0,024.6,000.0,034.5,027.7,15.5,0000.0,0000.30,0000.67,0000.10
2023-10-13 08:22:00,SystemResetWarning,0828.6,5.00,000.00,026.0,024.6,000.0,034.5,027.8,15.6,0000.0,0000.29,0000.86,0000.10
2023-10-13 08:23:00,SystemResetWarning,0828.6,5.00,000.00,026.0,024.6,000.0,034.5,027.7,15.5,0000.0,0000.27,0001.24,0000.10
2023-10-13 08:24:00,SystemResetWarning,0828.5,5.00,000.00,026.1,024.7,000.0,034.5,027.7,15.4,0000.0,0000.25,0001.20,0000.09
2023-10-13 08:25:00,SystemResetWarning,0828.5,5.00,000.00,026.1,024.7,000.0,034.5,027.8,15.3,0000.0,0000.21,0001.14,0000.09
2023-10-13 08:26:00,SystemResetWarning,0828.5,5.00,000.00,026.1,024.7,000.0,034.5,027.8,15.3,0000.0,0000.19,0001.09,0000.09
2023-10-13 08:27:00,SystemResetWarning,0828.6,5.00,000.00,026.1,024.7,000.0,034.5,027.8,15.2,0000.0,0000.19,0001.08,0000.09
2023-10-13 08:28:00,SystemResetWarning,0828.6,5.00,000.00,026.1,024.7,000.0,034.5,027.8,15.2,0000.0,0000.19,0001.09,0000.09
2023-10-13 08:29:00,SystemResetWarning,0828.6,5.00,000.00,026.1,024.7,000.0,034.5,027.8,15.2,0000.0,0000.17,0001.06,0000.09
2023-10-13 08:30:00,SystemResetWarning,0828.6,5.00,000.00,026.1,024.7,000.0,034.5,027.9,15.2,0000.0,0000.17,0001.14,0000.09
2023-10-13 08:31:00,SystemResetWarning,0828.6,5.00,000.00,026.1,024.7,000.0,034.5,027.9,15.2,0000.0,0000.20,0001.21,0000.10
2023-10-13 08:32:00,SystemResetWarning,0828.6,4.99,000.00,026.1,024.7,000.0,034.5,027.9,15.2,0000.0,0000.20,0001.17,0000.10
2023-10-13 08:33:00,SystemResetWarning,0828.6,5.00,000.00,026.1,024.8,000.0,034.5,027.9,15.2,0000.0,0000.20,0001.82,0000.10
2023-10-13 08:34:00,SystemResetWarning,0828.6,5.00,000.00,026.1,024.8,000.0,034.5,027.9,15.3,0000.0,0000.23,0001.65,0000.11
2023-10-13 08:35:00,SystemResetWarning,0828.6,5.00,000.00,026.1,024.7,000.0,034.5,027.8,15.4,0000.0,0000.24,0001.69,0000.11
2023-10-13 08:36:00,SystemResetWarning,0828.6,5.00,000.00,026.1,024.7,000.0,034.5,027.8,15.4,0000.0,0000.26,0001.98,0000.11
2023-10-13 08:37:00,SystemResetWarning,0828.6,4.99,000.00,026.1,024.7,000.0,034.5,027.8,15.4,0000.0,0000.27,0002.32,0000.11
2023-10-13 08:38:00,SystemResetWarning,0828.6,5.02,000.00,026.1,024.7,000.0,034.5,027.8,15.4,0000.0,0000.26,0002.30,0000.11
2023-10-13 08:39:00,SystemResetWarning,0828.6,5.00,000.00,026.1,024.7,000.0,034.5,027.8,15.4,0000.0,0000.26,0002.28,0000.10
2023-10-13 08:40:00,SystemResetWarning,0828.6,5.00,000.00,026.1,024.7,000.0,034.5,027.8,15.4,0000.0,0000.25,0002.24,0000.11
2023-10-13 08:41:00,SystemResetWarning,0828.6,5.00,000.00,026.1,024.7,000.0,034.5,027.8,15.4,0000.0,0000.23,0002.53,0000.11
2023-10-13 08:42:00,SystemResetWarning,0828.6,5.00,000.00,026.1,024.7,000.0,034.5,027.8,15.4,0000.0,0000.22,0003.43,0000.11
2023-10-13 08:43:00,SystemResetWarning,0828.6,5.00,000.00,026.1,024.7,000.0,034.5,027.8,15.4,0000.0,0000.23,0003.47,0000.11
2023-10-13 08:44:00,SystemResetWarning,0828.6,5.00,000.00,026.1,024.7,000.0,034.5,027.8,15.4,0000.0,0000.23,0002.92,0000.11
2023-10-13 08:45:00,SystemResetWarning,0828.6,5.00,000.00,026.1,024.7,000.0,034.5,027.8,15.4,0000.0,0000.21,0002.45,0000.11
2023-10-13 08:46:00,SystemResetWarning,0828.6,5.00,000.00,026.1,024.7,000.0,034.5,027.8,15.4,0000.0,0000.22,0002.47,0000.11
2023-10-13 08:47:00,SystemResetWarning,0828.7,5.00,000.00,026.1,024.7,000.0,034.5,027.8,15.4,0000.0,0000.21,0002.29,0000.11
2023-10-13 08:48:00,SystemResetWarning,0828.7,5.00,000.00,026.1,024.7,000.0,034.5,027.8,15.4,0000.0,0000.23,0001.97,0000.11
2023-10-13 08:49:00,SystemResetWarning,0828.7,5.00,000.00,026.1,024.7,000.0,034.5,027.8,15.3,0000.0,0000.24,0002.02,0000.11
2023-10-13 08:50:00,SystemResetWarning,0828.8,5.00,000.00,026.1,024.7,000.0,034.5,027.8,15.3,0000.0,0000.25,0002.04,0000.12
2023-10-13 08:51:00,SystemResetWarning,0828.8,5.00,000.00,026.1,024.7,000.0,034.5,027.8,15.3,0000.0,0000.26,0002.04,0000.11
2023-10-13 08:52:00,SystemResetWarning,0828.8,5.01,000.00,026.1,024.7,000.0,034.5,027.8,15.3,0000.0,0000.28,0001.95,0000.12
2023-10-13 08:53:00,SystemResetWarning,0828.8,5.01,000.00,026.1,024.7,000.0,034.5,027.8,15.3,0000.0,0000.29,0000.75,0000.12
2023-10-13 08:54:00,SystemResetWarning,0828.8,5.00,000.00,026.1,024.7,000.0,034.5,027.9,15.4,0000.0,0000.29,0000.75,0000.11
2023-10-13 08:55:00,SystemResetWarning,0828.8,4.99,000.00,026.1,024.7,000.0,034.5,027.9,15.3,0000.0,0000.28,0000.65,0000.11
2023-10-13 08:56:00,SystemResetWarning,0828.8,4.99,000.00,026.1,024.7,000.0,034.6,027.9,15.4,0000.0,0000.29,0000.62,0000.11
2023-10-13 08:57:00,SystemResetWarning,0828.8,5.00,000.00,026.2,024.6,000.0,034.6,027.9,15.7,0000.0,0000.27,0000.57,0000.11
2023-10-13 08:58:00,SystemResetWarning,0828.8,5.01,000.00,026.1,024.6,000.0,034.6,027.9,15.9,0000.0,0000.27,0000.56,0000.12
2023-10-13 08:59:00,SystemResetWarning,0828.8,5.01,000.00,026.1,024.6,000.0,034.6,027.8,15.9,0000.0,0000.24,0000.63,0000.12
